Regional Weather Roundup
Issued by NWS

Home | Current Version | Previous Version | Graphics & Text | Print | Product List | Glossary On
Versions: 1 2 3 4 5 6 7 8 9 10 11 12 13 14 15 16 17 18 19 20 21 22 23 24 25 26 27 28 29 30 31 32 33 34 35 36 37 38 39 40 41 42 43 44 45 46 47 48 49 50
000
ASUS43 KLMK 020610
RWRKY
KENTUCKY REGIONAL WEATHER ROUNDUP
NATIONAL WEATHER SERVICE LOUISVILLE KY
200 AM EDT SUN AUG 02 2015

NOTE "FAIR" INDICATES FEW OR NO CLOUDS BELOW 12,000 FEET
WITH NO SIGNIFICANT WEATHER AND/OR OBSTRUCTIONS TO VISIBILITY.

KYZ001>023-026-027-061>063-070>075-020700-
WESTERN AND SOUTH CENTRAL KENTUCKY

CITY           SKY/WX    TMP DP  RH WIND       PRES   REMARKS
PADUCAH        CLEAR     71  67  87 CALM      29.99R
HENDERSON      CLEAR     63  59  88 CALM      29.99S
OWENSBORO      CLEAR     68  65  90 CALM      30.01R
HOPKINSVILLE   CLEAR     69  65  85 SW2       29.99S
BOWLING GREEN  CLEAR     66  61  84 CALM      30.01S
GLASGOW        CLEAR    N/A N/A N/A CALM      30.01S
$$

KYZ024-025-028>034-038-045-046-053-020700-
NORTH CENTRAL KENTUCKY

CITY           SKY/WX    TMP DP  RH WIND       PRES   REMARKS
LOUISVILLE/SDF PTCLDY    72  60  66 SE3       30.00R
LOUISVILLE/LOU PTCLDY    68  60  75 CALM      30.01S
FORT KNOX      PTCLDY    62  60  92 CALM      30.00S
$$

KYZ035>037-039>044-047>052-055>060-089>105-020700-
NORTHEAST KENTUCKY

CITY           SKY/WX    TMP DP  RH WIND       PRES   REMARKS
LEXINGTON      MOCLDY    64  59  83 CALM      30.02S
COVINGTON      PTCLDY    66  60  81 W5        30.00S
FRANKFORT      PTCLDY    63  60  90 CALM      30.01S
$$

KYZ054-064>069-076>088-106>120-020700-
SOUTHEAST KENTUCKY

CITY           SKY/WX    TMP DP  RH WIND       PRES   REMARKS
JACKSON        PTCLDY    68  58  70 CALM      30.03S
LONDON         PTCLDY    65  59  81 CALM      30.03S
SOMERSET       MOCLDY    61  61 100 CALM      30.03S
MIDDLESBORO    CLEAR     63  62  97 CALM      30.03S
MONTICELLO     CLEAR     60  60 100 CALM      30.05S
$$



USA.gov is the U.S. government's official web portal to all federal, state and local government web resources and services.